TimeCDT,TemperatureF,Dew PointF,Humidity,Sea Level PressureIn,VisibilityMPH,Wind Direction,Wind SpeedMPH,Gust SpeedMPH,PrecipitationIn,Events,Conditions,WindDirDegrees,DateUTC
12:13 AM,71.6,69.8,94,29.86,7.0,South,4.6,-,N/A,,Clear,190,2013-08-20 05:13:00
12:32 AM,71.6,69.8,94,29.87,7.0,South,5.8,-,N/A,,Clear,190,2013-08-20 05:32:00
12:53 AM,71.6,69.8,94,29.87,5.0,SSW,5.8,-,N/A,,Clear,200,2013-08-20 05:53:00
1:12 AM,69.8,69.8,100,29.86,5.0,SSW,5.8,-,N/A,,Clear,200,2013-08-20 06:12:00
1:32 AM,71.6,69.8,94,29.86,5.0,SSW,6.9,-,N/A,,Clear,200,2013-08-20 06:32:00
1:53 AM,71.6,69.8,94,29.86,5.0,SSW,5.8,-,N/A,,Clear,210,2013-08-20 06:53:00
2:12 AM,69.8,69.8,100,29.85,5.0,SSW,6.9,-,N/A,,Clear,200,2013-08-20 07:12:00
2:32 AM,69.8,69.8,100,29.85,5.0,South,5.8,-,N/A,,Clear,190,2013-08-20 07:32:00
2:53 AM,69.8,68.0,94,29.85,4.0,South,5.8,-,N/A,,Clear,190,2013-08-20 07:53:00
3:12 AM,69.8,68.0,94,29.85,4.0,South,5.8,-,N/A,,Clear,190,2013-08-20 08:12:00
3:33 AM,69.8,68.0,94,29.85,4.0,SSW,6.9,-,N/A,,Clear,200,2013-08-20 08:33:00
3:53 AM,69.8,68.0,94,29.85,5.0,SSW,5.8,-,N/A,,Clear,210,2013-08-20 08:53:00
4:08 AM,69.8,66.2,88,29.85,4.0,SSW,6.9,-,N/A,,Clear,200,2013-08-20 09:08:00
4:33 AM,68.0,66.2,94,29.85,4.0,SSW,4.6,-,N/A,,Clear,200,2013-08-20 09:33:00
4:53 AM,68.0,66.2,94,29.85,3.0,SSW,3.5,-,N/A,,Clear,200,2013-08-20 09:53:00
5:12 AM,66.2,66.2,100,29.85,3.0,SSW,3.5,-,N/A,,Clear,210,2013-08-20 10:12:00
5:33 AM,66.2,64.4,94,29.85,1.8,South,3.5,-,N/A,,Mist,190,2013-08-20 10:33:00
5:52 AM,66.2,66.2,100,29.86,2.5,South,4.6,-,N/A,,Clear,190,2013-08-20 10:52:00
6:12 AM,66.2,64.4,94,29.86,2.5,South,3.5,-,N/A,,Clear,190,2013-08-20 11:12:00
6:33 AM,66.2,66.2,100,29.87,3.0,South,4.6,-,N/A,,Clear,180,2013-08-20 11:33:00
6:52 AM,66.2,66.2,100,29.87,2.0,South,3.5,-,N/A,,Clear,180,2013-08-20 11:52:00
7:12 AM,66.2,66.2,100,29.87,2.0,South,4.6,-,N/A,,Clear,180,2013-08-20 12:12:00
7:33 AM,68.0,66.2,94,29.87,2.5,South,5.8,-,N/A,,Clear,170,2013-08-20 12:33:00
7:52 AM,69.8,66.2,88,29.88,3.0,South,5.8,-,N/A,,Clear,180,2013-08-20 12:52:00
8:12 AM,69.8,68.0,94,29.87,4.0,South,6.9,-,N/A,,Clear,180,2013-08-20 13:12:00
8:33 AM,71.6,68.0,88,29.87,5.0,SSW,6.9,-,N/A,,Clear,200,2013-08-20 13:33:00
8:52 AM,73.4,69.8,88,29.87,5.0,SSW,5.8,-,N/A,,Clear,200,2013-08-20 13:52:00
9:12 AM,73.4,69.8,88,29.87,7.0,SSW,8.1,-,N/A,,Clear,200,2013-08-20 14:12:00
9:33 AM,75.2,69.8,83,29.87,7.0,SSW,8.1,-,N/A,,Clear,200,2013-08-20 14:33:00
9:52 AM,75.2,69.8,83,29.87,7.0,South,8.1,-,N/A,,Clear,190,2013-08-20 14:52:00
10:13 AM,78.8,71.6,78,29.87,7.0,SSW,6.9,-,N/A,,Clear,200,2013-08-20 15:13:00
10:33 AM,78.8,71.6,78,29.87,10.0,SSW,5.8,-,N/A,,Clear,210,2013-08-20 15:33:00
10:52 AM,80.6,71.6,74,29.87,10.0,SSW,5.8,-,N/A,,Clear,210,2013-08-20 15:52:00
11:13 AM,82.4,71.6,70,29.87,10.0,SSW,4.6,-,N/A,,Clear,200,2013-08-20 16:13:00
11:33 AM,82.4,73.4,74,29.87,10.0,SSW,8.1,-,N/A,,Clear,200,2013-08-20 16:33:00
11:52 AM,84.2,73.4,70,29.87,10.0,South,6.9,-,N/A,,Clear,180,2013-08-20 16:52:00
12:13 PM,84.2,73.4,70,29.87,10.0,SSE,8.1,-,N/A,,Clear,160,2013-08-20 17:13:00
12:32 PM,86.0,73.4,66,29.86,10.0,South,9.2,-,N/A,,Clear,180,2013-08-20 17:32:00
12:52 PM,86.0,73.4,66,29.86,10.0,SW,11.5,-,N/A,,Clear,220,2013-08-20 17:52:00
1:13 PM,87.8,73.4,62,29.85,10.0,SSW,12.7,17.3,N/A,,Clear,210,2013-08-20 18:13:00
1:32 PM,87.8,73.4,62,29.85,10.0,SSW,11.5,-,N/A,,Clear,210,2013-08-20 18:32:00
1:52 PM,87.8,73.4,62,29.85,10.0,South,12.7,-,N/A,,Scattered Clouds,190,2013-08-20 18:52:00
2:13 PM,87.8,73.4,62,29.85,10.0,South,10.4,-,N/A,,Clear,190,2013-08-20 19:13:00
2:32 PM,89.6,73.4,59,29.85,10.0,SSW,8.1,16.1,N/A,,Clear,200,2013-08-20 19:32:00
2:52 PM,89.6,73.4,59,29.85,10.0,SSW,6.9,16.1,N/A,,Clear,200,2013-08-20 19:52:00
3:12 PM,89.6,71.6,55,29.84,10.0,SW,11.5,-,N/A,,Clear,220,2013-08-20 20:12:00
3:32 PM,89.6,73.4,59,29.84,10.0,SSW,8.1,11.5,N/A,,Clear,210,2013-08-20 20:32:00
3:53 PM,89.6,73.4,59,29.84,10.0,SW,10.4,16.1,N/A,,Clear,220,2013-08-20 20:53:00
4:12 PM,89.6,71.6,55,29.83,10.0,South,11.5,-,N/A,,Clear,190,2013-08-20 21:12:00
4:32 PM,89.6,71.6,55,29.83,10.0,SSW,10.4,-,N/A,,Clear,210,2013-08-20 21:32:00
4:53 PM,89.6,73.4,59,29.83,10.0,SSW,11.5,-,N/A,,Clear,200,2013-08-20 21:53:00
5:12 PM,87.8,73.4,62,29.83,10.0,South,10.4,-,N/A,,Clear,190,2013-08-20 22:12:00
5:32 PM,87.8,73.4,62,29.82,10.0,South,9.2,-,N/A,,Clear,180,2013-08-20 22:32:00
5:53 PM,87.8,73.4,62,29.83,10.0,SSW,12.7,-,N/A,,Clear,200,2013-08-20 22:53:00
6:12 PM,87.8,73.4,62,29.82,10.0,SSW,9.2,-,N/A,,Clear,200,2013-08-20 23:12:00
6:32 PM,87.8,73.4,62,29.82,10.0,South,10.4,-,N/A,,Clear,190,2013-08-20 23:32:00
6:53 PM,86.0,73.4,66,29.82,10.0,South,9.2,-,N/A,,Clear,190,2013-08-20 23:53:00
7:12 PM,84.2,73.4,70,29.82,10.0,South,9.2,-,N/A,,Clear,180,2013-08-21 00:12:00
7:32 PM,84.2,73.4,70,29.82,10.0,South,6.9,-,N/A,,Clear,180,2013-08-21 00:32:00
7:53 PM,82.4,73.4,74,29.82,10.0,South,6.9,-,N/A,,Clear,190,2013-08-21 00:53:00
8:12 PM,82.4,73.4,74,29.82,10.0,South,6.9,-,N/A,,Clear,180,2013-08-21 01:12:00
8:32 PM,80.6,73.4,79,29.82,10.0,South,8.1,-,N/A,,Clear,180,2013-08-21 01:32:00
8:52 PM,80.6,73.4,79,29.83,10.0,South,6.9,-,N/A,,Clear,180,2013-08-21 01:52:00
9:12 PM,78.8,73.4,83,29.83,10.0,South,8.1,-,N/A,,Clear,180,2013-08-21 02:12:00
9:33 PM,78.8,73.4,83,29.83,10.0,South,6.9,-,N/A,,Clear,190,2013-08-21 02:33:00
9:52 PM,78.8,73.4,83,29.84,10.0,South,5.8,-,N/A,,Clear,190,2013-08-21 02:52:00
10:12 PM,77.0,73.4,89,29.84,10.0,South,6.9,-,N/A,,Clear,190,2013-08-21 03:12:00
10:33 PM,75.2,73.4,94,29.84,7.0,SSW,8.1,-,N/A,,Clear,200,2013-08-21 03:33:00
10:52 PM,75.2,73.4,94,29.84,7.0,South,6.9,-,N/A,,Clear,190,2013-08-21 03:52:00
11:13 PM,75.2,73.4,94,29.83,7.0,SSW,5.8,-,N/A,,Clear,200,2013-08-21 04:13:00
11:33 PM,75.2,73.4,94,29.82,5.0,South,6.9,-,N/A,,Clear,190,2013-08-21 04:33:00
11:52 PM,75.2,73.4,94,29.82,5.0,South,6.9,-,N/A,,Clear,190,2013-08-21 04:52:00